User: anonymous   Login
Location: Highridge
(54.0333°N, 114.1333°W)
Time: 12:27:36
(UTC+00:00)
Language:

TIGRISAT - Orbit

View from above orbital plane
View from above orbital plane
View from above satellite
View from above satellite

Ground track
Ground track

The orbit data is extracted from the following two-line orbital elements,

1 40043U 14033AK  23334.44282366  .00005312  00000-0  73370-3 0  9996
2 40043  97.6743 141.2938 0055736 232.9236 126.6872 14.77447393508251
Epoch (UTC): 30 November 2023 10:37:39
Eccentricity: 0.0055736
inclination: 97.6743°
perigee height: 598 km
apogee height: 676 km
right ascension of ascending node: 141.2938°
argument of perigee: 232.9236°
revolutions per day: 14.77447393
mean anomaly at epoch: 126.6872°
orbit number at epoch: 50825

The dashed part of the orbit path shows where the satellite is in the earth's shadow,  

DLR